ZIYUAN 3-1 (ZY 3-1)

Last updated on Fri Oct 04 2024 00:02:25 GMT+0000 (Coordinated Universal Time)

1 38046U 12001A 24277.51033276 .00049661 00000+0 13547-2 0 9991 2 38046 97.2332 337.4004 0006118 113.5659 246.6229 15.37267133707492
UTC large
Height (km)
Speed (km/s)
/
Latitude / Longitude
Inclination (degrees)
Orbital Period (minutes)
Azimuth
Elevation
Range (km)
Doppler Factor

Next 0 passes for location: London (51.5072 / 0.1276)

Sorry there are no passes over London.